Regional Weather Roundup
Issued by NWS

Home | Current Version | Previous Version | Graphics & Text | Print | Product List | Glossary On
Versions: 1 2 3 4 5 6 7 8 9 10 11 12 13 14 15 16 17 18 19 20 21 22 23 24 25 26 27 28 29 30 31 32 33 34 35 36 37 38 39 40 41 42 43 44 45 46 47 48 49 50
000
ASUS43 KIND 202109
RWRIN

WEATHER ROUNDUP FOR INDIANA
NATIONAL WEATHER SERVICE INDIANAPOLIS IN
500 PM EDT FRI OCT 20 2017

NOTE: "FAIR" INDICATES FEW OR NO CLOUDS BELOW 12,000 FEET WITH NO
SIGNIFICANT WEATHER AND/OR OBSTRUCTIONS TO VISIBILITY.

* - STATION DOES NOT REPORT WEATHER SUCH AS PRECIPITATION OR FOG.

+ - STATION NOT QUALITY CONTROLLED BY THE NATIONAL WEATHER SERVICE.
    USE DATA WITH CAUTION...ESPECIALLY DEWPOINT AND RELATIVE
    HUMIDITY OBSERVATIONS.

INZ001>003-010>013-019-020-202200-
NORTHWEST INDIANA

CITY           SKY/WX    TMP DP  RH WIND       PRES   REMARKS
GARY /AIRPORT/ MOSUNNY   81  43  26 S12       30.09F
KNOX *+        SUNNY     77  50  38 S9        30.12F
LA PORTE +     SUNNY     76  51  40 S8        30.12F
MICHIGAN CITY+ SUNNY     77  50  38 S9        30.10F
MONTICELLO +   SUNNY     75  48  38 S8        30.13F
RENSSELAER +   SUNNY     77  32  19 S8        30.11F
VALPARAISO     SUNNY     78  51  38 S9        30.11F

$$

LMZ046-743>745-202200-
SOUTHERN LAKE MICHIGAN

STATION/POSITION TIME  TEMP    WIND        PRES    WAVE
                       AIR SEA DIR/SP/G            HT
                 (UTC) (F)     (DEG/KT/KT) (MB)    (FT)
BURNS HARBOR     2040   77     180/ 12/ 16 1019.3F
MICHIGAN CITY    2040   76     170/ 12/ 15   N/A
5NW MICH CITY    2100   69 59  190/  8/ 10   N/A     1

$$

INZ004-005-014>016-021>024-202200-
NORTH CENTRAL INDIANA

CITY           SKY/WX    TMP DP  RH WIND       PRES   REMARKS
ELKHART        SUNNY     75  50  41 S12       30.13F
GOSHEN         SUNNY     75  49  39 S12       30.14F
LOGANSPORT +   SUNNY     75  46  35 S9        30.15S
PERU/GRISSOM   SUNNY     75  51  41 S10       30.14F
SOUTH BEND     SUNNY     75  50  41 S13       30.13F
WARSAW +       SUNNY     73  52  46 S5        30.15S

$$

INZ006>009-017-018-025>027-202200-
NORTHEAST INDIANA

CITY           SKY/WX    TMP DP  RH WIND       PRES   REMARKS
AUBURN +       SUNNY     77  50  38 S5        30.17S
FORT WAYNE     PTSUNNY   75  50  41 S10       30.16F
HUNTINGTON +   SUNNY     75  47  37 S6        30.16F
KENDALLVILLE + SUNNY     76  52  42 SW10      30.16S

$$

INZ028-029-035-036-043>045-051>053-202200-
WEST CENTRAL INDIANA

CITY           SKY/WX    TMP DP  RH WIND       PRES   REMARKS
CRAWFORDSVL +  SUNNY     73  48  40 S8        30.15F
GREENCASTLE +  SUNNY     73  48  40 S6        30.16F
LAFAYETTE      SUNNY     75  50  41 S5        30.13F
TERRE HAUTE    SUNNY     75  48  38 S12       30.14F

$$

INZ030>032-037>040-046>048-054>057-064-065-202200-
CENTRAL INDIANA

CITY           SKY/WX    TMP DP  RH WIND       PRES   REMARKS
CP ATTERBURY + SUNNY     77  50  38 S7        30.17F
COLUMBUS       SUNNY     75  41  29 S8        30.18F
FISHERS *+     SUNNY     75  54  46 S9        30.16F
FRANKFORT +    PTSUNNY   79  50  36 S8        30.16F
GREENWOOD *+   SUNNY     80  46  30 S7        30.18F
INDIANAPOLIS   PTSUNNY   75  50  41 S10       30.16F
-EAGLE CREEK   SUNNY     75  48  38 S7        30.16F
KOKOMO +       SUNNY     75  51  43 S10       30.17F
MARION +       SUNNY     75  48  38 SW10      30.17F
MT COMFORT *+  SUNNY     75  55  50 S7        30.18S
SHELBYVILLE    SUNNY     77  46  33 S10       30.17F
ZIONSVILLE +   SUNNY     74  48  39 S8        30.17S

$$

INZ033-034-041-042-049-050-058-059-202200-
EAST CENTRAL INDIANA

CITY           SKY/WX    TMP DP  RH WIND       PRES   REMARKS
MUNCIE         SUNNY     78  47  33 S6        30.17F
RICHMOND +     SUNNY     72  50  46 S12       30.21S

$$

INZ060-061-067>069-081>083-085>088-202200-
SOUTHWEST INDIANA

CITY           SKY/WX    TMP DP  RH WIND       PRES   REMARKS
EVANSVILLE     SUNNY     77  47  34 SE8       30.16S
HUNTINGBURG +  SUNNY     76  51  41 S7        30.17F
WASHINGTON +   SUNNY     78  43  29 S8        30.16S

$$

INZ062-063-066-070>080-084-089>092-202200-
SOUTH CENTRAL AND SOUTHEAST INDIANA

CITY           SKY/WX    TMP DP  RH WIND       PRES   REMARKS
BEDFORD +      SUNNY     77  43  29 SE6       30.16F
BLOOMINGTON    SUNNY     77  47  34 S9        30.17F
MADISON *+     SUNNY     77  43  29 SE5       30.21F
NORTH VERNON + SUNNY     75  48  38 S6        30.18F
SEYMOUR +      SUNNY     77  50  38 S8        30.17F

$$




USA.gov is the U.S. government's official web portal to all federal, state and local government web resources and services.